www.pogodaiklimat.ru

Погода и климат >> Архив погоды >> Индия >> Bhuj-Rudramata


ПОГОДА в Bhuj-Rudramata

  • Прогноз погоды в Bhuj-Rudramata
  • Монитор погоды в Bhuj-Rudramata
  • Климат города

АРХИВ ПОГОДЫ в Bhuj-Rudramata

Время (UTC), дата Ветер
(напр.,м/с)
 
Видим.   Явления Облачность Т
(С)
Тd
(С)
f
(%)
Тe
(С)
Тes
(С)
Комфортность P
(гПа)
Po
(гПа)
Тmin
(С)
Tmax
(С)
R
(мм)
R24
(мм)
S
(см)
09 14.10 нст 1 4000 м 3/0
[Ci sp]
+42.0 +15.8 22 +43 +57 опасность
перегрева
1003.8 1004.0
12 14.10 Ю 3 4000 м 3/0
[Ci sp]
+37.6 +18.5 33 +42 +43 опасность
перегрева
1002.9 1003.0 +42.2
15 14.10 З 2 4000 м 3/0
[Ci sp]
+31.4 +18.4 46 +36 +36 очень
душно
1005.0 1005.0
18 14.10 З 2 4000 м 3/0
[Ci sp]
+28.6 +16.0 46 +32 +32 душно 1005.6 1006.0
21 14.10 нст 1 4000 м ясно +27.0 +16.4 52 +30 +30 душно 1005.0 1005.0
00 15.10 З 2 4000 м ясно +25.8 +17.9 62 +30 +30 душно 1005.9 1006.0
03 15.10 З 2 4000 м 3/0
[Ci sp]
+26.6 +13.1 43 +33 +35 очень
душно
1007.9 1008.0 +23.4
06 15.10 СЗ 2 4000 м 3/0
[Ci sp]
+37.8 +8.6 17 +36 +49 очень
жарко
1007.8 1008.0
09 15.10 штиль 0 4000 м 3/0
[Ci sp]
+41.6 +10.7 16 +40 +56 опасность
солнечного
удара
1005.0 1005.0
12 15.10 З 3 4000 м 3/0
[Ci sp]
+39.4 +9.9 17 +38 +39 очень
жарко
1003.9 1004.0 +42.3
15 15.10 З 2 4000 м ясно +31.2 +14.5 36 +33 +33 жарко 1006.0 1006.0
18 15.10 З 2 4000 м ясно +27.6 +17.1 53 +32 +32 очень
душно
1007.4 1007.0
21 15.10 З 2 4000 м ясно +26.0 +18.2 62 +31 +31 очень
душно
1007.0 1007.0
00 16.10 нст 1 4000 м ясно +24.8 +16.8 61 +28 +28 жарко 1006.5 1007.0
03 16.10 нст 1 4000 м 9/6 360 м
[St Ac trans]
+24.6 +22.5 88 +32 +33 очень
душно
1008.9 1009.0 +22.3
06 16.10 Ю 2 4000 м ясно +35.8 +15.5 30 +38 +51 опасность
солнечного
удара
1008.6 1009.0
09 16.10 Ю 2 4000 м ясно +39.6 +9.7 17 +38 +50 очень
жарко
1005.8 1006.0
12 16.10 З 3 4000 м ясно +38.0 +14.3 25 +39 +40 очень
душно
1005.0 1005.0 +41.0
15 16.10 З 2 4000 м ясно +31.4 +20.6 53 +38 +38 очень
душно
1006.7 1007.0
18 16.10 нст 1 4000 м ясно +27.4 +22.4 74 +36 +36 очень
душно
1007.9 1008.0
21 16.10 штиль 0 4000 м ясно +25.8 +22.5 82 +34 +34 очень
душно
1007.3 1007.0
00 17.10 З 2 4000 м ясно +23.0 +19.5 81 +30 +30 очень
душно
1007.6 1008.0
03 17.10 штиль 0 4000 м ясно +24.0 +17.2 66 +28 +31 душно 1009.4 1009.0 +21.4
06 17.10 штиль 0 4000 м ясно +33.4 +19.5 44 +39 +57 опасность
солнечного
удара
1009.6 1010.0
12 17.10 штиль 0 4000 м ясно +39.4 +14.7 23 +40 +42 очень
душно
1005.6 1006.0 +40.4
15 17.10 штиль 0 4000 м ясно +32.0 +20.3 50 +39 +39 очень
душно
1007.5 1008.0
18 17.10 штиль 0 4000 м ясно +29.6 +13.6 38 +31 +31 жарко 1008.4 1008.0
21 17.10 штиль 0 4000 м ясно +28.0 +14.0 42 +30 +30 жарко 1007.9 1008.0
00 18.10 штиль 0 4000 м ясно +25.4 +12.2 44 +27 +27 жарко 1008.0 1008.0
03 18.10 штиль 0 4000 м ясно +25.0 +14.0 50 +32 +35 очень
душно
1010.2 1010.0 +22.0
06 18.10 нст 1 4000 м ясно +36.0 +13.0 25 +36 +52 опасность
солнечного
удара
1010.4 1010.0
09 18.10 нст 1 4000 м ясно +39.4 +3.0 11 +36 +51 опасность
солнечного
удара
1007.1 1007.0
12 18.10 штиль 0 4000 м ясно +39.2 +12.9 21 +39 +41 очень
жарко
1006.4 1006.0 +41.0
15 18.10 штиль 0 4000 м ясно +32.2 +18.7 45 +37 +37 очень
душно
1008.0 1008.0
18 18.10 штиль 0 4000 м ясно +29.0 +11.8 35 +30 +30 жарко 1008.9 1009.0
21 18.10 штиль 0 4000 м ясно +27.6 +12.6 39 +29 +29 жарко 1007.3 1007.0
00 19.10 штиль 0 4000 м ясно +25.0 +10.7 41 +26 +26 жарко 1007.4 1007.0
03 19.10 штиль 0 4000 м ясно +27.0 +9.6 34 +32 +35 очень
душно
1009.6 1010.0 +23.4
06 19.10 штиль 0 4000 м ясно +37.0 +9.4 19 +36 +53 опасность
солнечного
удара
1009.6 1010.0
09 19.10 штиль 0 4000 м ясно +39.2 +10.1 17 +38 +54 опасность
солнечного
удара
1007.0 1007.0
12 19.10 штиль 0 4000 м ясно +39.0 +12.5 21 +39 +40 очень
жарко
1005.9 1006.0 +40.8
15 19.10 штиль 0 4000 м ясно +32.0 +18.8 46 +37 +37 очень
душно
1008.5 1009.0
18 19.10 штиль 0 4000 м ясно +29.0 +16.1 46 +32 +32 душно 1008.5 1009.0
21 19.10 штиль 0 4000 м ясно +27.0 +15.6 50 +30 +30 душно 1005.9 1006.0
00 20.10 штиль 0 4000 м ясно +25.8 +16.0 55 +29 +29 душно 1006.0 1006.0
03 20.10 СВ 1 4000 м ясно +26.0 +21.5 76 +33 +35 очень
душно
1009.2 1009.0 +23.0
06 20.10 СВ 1 4000 м ясно +34.6 +13.7 28 +35 +50 очень
жарко
1009.7 1010.0
09 20.10 СВ 1 4000 м ясно +34.6 +13.7 28 +35 +49 очень
жарко
1009.7 1010.0
12 20.10 СВ 2 4000 м ясно +38.4 +15.4 26 +36 +38 очень
жарко
1005.9 1006.0 +39.4
15 20.10 СВ 1 4000 м ясно +32.0 +16.9 40 +35 +35 очень
душно
1007.5 1008.0
18 20.10 штиль 0 4000 м ясно +29.0 +16.1 46 +32 +32 душно 1008.4 1008.0
21 20.10 штиль 0 4000 м ясно +27.0 +15.6 50 +30 +30 душно 1006.1 1006.0
00 21.10 штиль 0 4000 м ясно +25.6 +20.1 72 +32 +32 очень
душно
1007.0 1007.0
03 21.10 ЮЗ 1 4000 м ясно +25.8 +16.0 55 +29 +31 душно 1009.5 1010.0 +23.6
06 21.10 С 2 4000 м ясно +35.0 +10.3 22 +34 +46 очень
жарко
1009.4 1009.0

 

Местоположение метеостанции Bhuj-Rudramata (Gujarat, Индия): широта 23.25 долгота 69.67 высота над уровнем моря 80 м.

В архиве по умолчанию представлена погода в Bhuj-Rudramata за последнюю неделю. Архивные данные за месяц целиком и за предыдущие месяцы, начиная с января 2011 года, Вы можете получить, выбрав интересующий диапазон дат из раскрывающегося списка и нажав кнопку "Ввод!".

Внимание! Время в таблицах - всемирное. Для получения местного времени необходимо прибавить поправку, которая в Bhuj-Rudramata равна 5.5 ч.

Смотрите также архив погоды в соседних городах и на ближайших метеорологических станциях:

Погода в Kandla (Gujarat, Индия) (47 км)
Погода в New Kandla (Gujarat, Индия) (63 км)
Погода в Mandvi (Gujarat, Индия) (63 км)
Погода в Naliya (Gujarat, Индия) (84 км)
Погода в Okha (Gujarat, Индия) (103 км)
Погода в Dwarka (Gujarat, Индия) (115 км)
Погода в Rajkot (Gujarat, Индия) (155 км)
Погода в Badin (Пакистан) (172 км)
Погода в Porbandar (Gujarat, Индия) (178 км)
Погода в Surendranagar (Gujarat, Индия) (206 км)

Пояснения к столбцам:

Ветер - указаны скорость ветра в м/с - средняя за 10 мин, порывы в срок и между сроками (в фигурных скобках) и направление, откуда дует ветер: С - северный, СВ - северо-восточный, В - восточный, ЮВ - юго-восточный, Ю - южный, ЮЗ - юго-западный, З - западный, СЗ - северо-западный.
Видимость - горизонтальная дальность видимости в метрах или километрах. При видимости от 1 до 10 км при отсутствии осадков обычно наблюдается дымка, при ухудшении видимости до 1 км и менее - туман. В сухую погоду видимость может ухудшаться дымом, пылью или мглою.
Явления - указаны атмосферные явления, наблюдавшиеся в срок или в последний час перед сроком; фигурными скобками обозначены явления, наблюдавшиеся между сроками (за 1-3 часа до срока); квадратными скобками обозначены град или гололедные отложения с указанием их диаметра в мм.
Облачность - указаны через наклонную черту общая и нижняя облачность в баллах и высота нижней границы облаков в метрах; квадратными скобками обозначены формы облаков: Ci - перистые, Cs - перисто-слоистые, Cc - перисто-кучевые, Ac - высококучевые, As - высокослоистые, Sc - слоисто-кучевые, Ns - слоисто-дождевые, Cu - кучевые, Cb - кучево-дождевые. Подробнее классификацию облаков см. в Атласе облаков (PDF).
T - Температура воздуха - температура, измеренная на высоте 2 м над землей.
Td - Температура точки росы - температура, при понижении до которой содержащийся в воздухе водяной пар достигнет насыщения.
f - Относительная влажность воздуха - влажноcть воздуха, измеренная на высоте 2 м над землей.
Te - Эффективная температура - температура, которую ощущает одетый по сезону человек в тени. Характеристика душности погоды. При расчете учитывается влияние влажности воздуха и скорости ветра на теплоощущения человека.
Tes - Эффективная температура на солнце - температура, которую ощущает человек, с поправкой на солнечный нагрев. Характеристика знойности погоды. Зависит от высоты солнца над горизонтом, облачности и скорости ветра. Ночью, в пасмурную погоду, а также при ветре 12 м/с и более поправка равна нулю.
P - Атмосферное давление - приведенное к уровню моря атмосферное давление.
Po - Атмосферное давление - измеренное на уровне метеостанции атмосферное давление.
Tmin - Минимальная температура - минимум температуры воздуха на высоте 2 м над землей.
Tmax - Максимальная температура - максимум температуры воздуха на высоте 2 м над землей.
R - Количество осадков - Количество выпавших осадков за период времени, мм. При наведении курсора мыши на число - период времени, за который выпало указанное количество осадков.
R24 - Количество осадков - Количество выпавших осадков за 24 часа, мм.
S - Снежный покров - Высота снежного покрова, см. При наведении курсора мыши на число - состояние снежного покрова и степень покрытия местности в баллах.